This is the latest recevied weather packets stored in our database for station/object K5BOU. If no packets are shown the sender has not sent any weather packets the latest 10 day(s).
| Time | Temp. | Humidity | Pressure | Rain* | Wind** | Luminosity | Snow |
|---|---|---|---|---|---|---|---|
| 1788354569 | 25.56° C | 99% | 1013.3 hPa | 0 mm | - | 54 W/m² | - |
| 1788354266 | 25.56° C | 99% | 1013.3 hPa | 0 mm | - | 51 W/m² | - |
| 1788353960 | 25.56° C | 99% | 1013.5 hPa | 0 mm | - | 46 W/m² | - |
| 1788353656 | 25.56° C | 99% | 1013.2 hPa | 0 mm | - | 40 W/m² | - |
| 1788353352 | 25.56° C | 99% | 1013.4 hPa | 0 mm | - | 34 W/m² | - |
| 1788353048 | 25.56° C | 99% | 1013.2 hPa | 0 mm | - | 23 W/m² | - |
| 1788352743 | 25° C | 99% | 1013 hPa | 0 mm | - | 19 W/m² | - |
| 1788352439 | 25° C | 99% | 1012.8 hPa | 0 mm | - | 17 W/m² | - |
| 1788352137 | 25° C | 99% | 1012.7 hPa | 0 mm | - | 13 W/m² | - |
| 1788351833 | 25° C | 99% | 1012.6 hPa | 0 mm | - | 8 W/m² | - |
| 1788351528 | 25° C | 99% | 1012.5 hPa | 0 mm | - | 4 W/m² | - |
| 1788351223 | 25° C | 99% | 1012.5 hPa | 0 mm | - | 3 W/m² | - |
| 1788350918 | 25° C | 99% | 1012.7 hPa | 0 mm | - | 1 W/m² | - |
| 1788350614 | 25° C | 99% | 1012.6 hPa | 0 mm | - | 0 W/m² | - |
| 1788350308 | 25° C | 99% | 1012.7 hPa | 0 mm | - | 0 W/m² | - |
| 1788350005 | 25° C | 99% | 1012.8 hPa | 0 mm | - | 0 W/m² | - |
| 1788349701 | 25° C | 99% | 1012.7 hPa | 0 mm | - | 0 W/m² | - |
| 1788349397 | 25° C | 99% | 1012.7 hPa | 0 mm | - | 0 W/m² | - |
| 1788349097 | 25° C | 99% | 1012.7 hPa | 0 mm | - | 0 W/m² | - |
| 1788348792 | 25° C | 99% | 1012.5 hPa | 0 mm | - | 0 W/m² | - |
| 1788348492 | 25° C | 99% | 1012.6 hPa | 0 mm | - | 0 W/m² | - |
| 1788348188 | 25° C | 99% | 1012.6 hPa | 0 mm | - | 0 W/m² | - |
| 1788347883 | 25° C | 99% | 1012.6 hPa | 0 mm | - | 0 W/m² | - |
| 1788347580 | 25° C | 99% | 1012.7 hPa | 0 mm | - | 0 W/m² | - |
| 1788347275 | 25° C | 99% | 1012.6 hPa | 0 mm | - | 0 W/m² | - |
* Rain latest hour (hover to see other rain measurements)
** Current wind speed in m/s (hover to see current wind gust speed)